Regional Weather Roundup
Issued by NWS Newport/Morehead, NC

Current Version | Previous Version | Graphics & Text | Print | Product List | Glossary Off
Versions: 1 2 3 4 5 6 7 8 9 10 11 12 13 14 15 16 17 18 19 20 21 22 23 24 25 26 27 28 29 30 31 32 33 34 35 36 37 38 39 40 41 42 43 44 45 46 47 48 49 50

000
ASUS42 KMHX 272022
RWRMHX
WEATHER ROUNDUP FOR EASTERN NORTH CAROLINA
NATIONAL WEATHER SERVICE NEWPORT/MOREHEAD CITY NC
300 PM EST TUE JAN 27 2015

NOTE: "FAIR" INDICATES FEW OR NO CLOUDS BELOW 12,000 FEET
WITH NO SIGNIFICANT WEATHER AND/OR OBSTRUCTIONS TO VISIBILITY

NCZ015>017-031-032-045>047-102-103-272100-
NORTH COAST

CITY           SKY/WX    TMP DP  RH WIND       PRES   REMARKS
EDENTON        CLOUDY    34  29  83 NW9G17    29.79R
ELIZABETH CITY CLOUDY    35  28  75 NW13      29.77R
KITTY HAWK     CLOUDY    34  30  85 NW8G18    29.73S
MANTEO         CLOUDY    34  28  80 NW7G18    29.75R

$$

NCZ045>047-081-094-103-104-272100-
CENTRAL COAST

CITY           SKY/WX    TMP DP  RH WIND       PRES   REMARKS
FRISCO         CLOUDY    35  32  88 NW9G17    29.74R
SWANQUARTER    NOT AVBL

$$

NCZ095-097-098-100-101-272100-
SOUTHERN COAST

CITY           SKY/WX    TMP DP  RH WIND       PRES   REMARKS
BEAUFORT       CLOUDY    37  29  72 NW14      29.78R
CEDAR ISLAND   NOT AVBL
JACKSONVILLE   CLOUDY    39  29  67 NW13      29.79R
PINEY ISLAND     N/A    N/A N/A N/A MISG      29.77R
WILMINGTON     CLOUDY    41  30  65 NW10      29.81R


$$

NCZ011>013-027>030-043-044-078>080-089-090>093-098-272100-
COASTAL PLAIN

CITY           SKY/WX    TMP DP  RH WIND       PRES   REMARKS
AHOSKIE        CLOUDY    33  28  80 N7        29.80S
CLINTON        MOSUNNY   42  28  57 NW8       29.82R
ELIZABETHTOWN  MOSUNNY   43  25  48 N7        29.81S
GOLDSBORO      PTSUNNY   41  34  76 N7        29.79S
GREENVILLE     CLOUDY    37  28  70 N12G20    29.83R
HAVELOCK       CLOUDY    38  27  64 NW16      29.79R
KENANSVILLE    CLOUDY    39  28  63 NW5       29.82R
KINSTON        PTSUNNY   37  30  75 NW9       29.81R
NEW BERN       CLOUDY    39  27  62 NW9       29.80R
RICHLANDS      CLOUDY    39  27  60 NW6       29.81R
ROCKY MOUNT    CLOUDY    38  27  64 N8        29.81S
WASHINGTON     MIX PCPN  35  29  78 N7        29.79S
WHITEVILLE     PTSUNNY   45  24  44 W3        29.81R

$$

AMZ130-135-150-152-154-156-158-170-250-252-270-ANZ085-086-088-633-658-670-272100-
MARINE OBSERVATIONS

STATION/POSITION TIME  TEMP    WIND        PRES    WAVE   SWELL
                       AIR SEA DIR/SP/G            HT/PER HT/PER
                 (UTC) (F)     (DEG/KT/KT) (MB)    (FT/S) (FT/S)
CHESAPEAKE LIGHT 2000   35     330/ 22/ 24 1007.5
64 E VA BEACH    2000   37 51  340/ 21/ 27 1004.9   14/13  11/13
DUCK             2000   35 43  340/ 18/ 20 1006.1
2 E DUCK         2000      44                N/A     9/13   7/13
10 NE DUCK       2000      46                N/A    11/14   8/14
OREGON INLET     2000   35 45  330/ 11/ 19 1007.0
13E OREGON INLT  2000      47                N/A    12/13  10/13
HATTERAS CG      2000   35 48  340/ 18/ 21 1007.4
DIAMOND BUOY     2000   38 70  330/ 19/ 25 1006.1   10/13   8/13
17 S OCRACOKE    NOT AVBL
CAPE LOOKOUT     2000   37     340/ 13/ 15 1008.1
BEAUFORT LAB     2000   37 49  340/  9/ 14 1007.4
27 SE WRIGHTSVLE NOT AVBL
5 SE WRIGHTSVLE  2000   42 53  330/ 12/ 16 1009.0
225 S CAPE HAT   1930   59 71  280/ 25/ 31 1004.2   14/10  10/10
41 SE CHARLESTON 2000   48 68  300/ 17/ 23 1009.4    4/ 6   2/10

$$


USA.gov is the U.S. government's official web portal to all federal, state and local government web resources and services.